(274717) = 2008 UD140

Discovered at Kitt Peak on 2008-10-23 by Spacewatch.

Orbit

Orbit type: Main Belt

Note: WebGL enabled browser required.

epoch2023-02-25.0
epoch JD2460000.5
perihelion date2019-05-05.44786
perihelion JD2458608.94786
argument of perihelion (°)104.92682
ascending node (°)223.58091
inclination (°)4.26092
eccentricity0.1642234
perihelion distance (AU)2.6826186
Tisserand w.r.t. Jupiter3.2
ΔV w.r.t. Earth (km/sec)10.3
semimajor axis (AU)3.2097315
mean anomaly (°)238.50653
mean daily motion (°/day)0.17139600
aphelion distance (AU)3.737
period (years)5.75
P-vector [x]0.85086946
P-vector [y]-0.50605961
P-vector [z]-0.14115538
Q-vector [x]0.52287446
Q-vector [y]0.78948621
Q-vector [z]0.32142468
absolute magnitude15.84
phase slope0.15
uncertainty0
referenceMPO 745323
observations used301
oppositions15
arc length (days)7494
first opposition used2002
last opposition used2023
residual rms (arc-secs)0.71
perturbers coarse indicatorM-v
perturbers precise indicator003Ek
first observation date used2002-10-18.0
last observation date used2023-04-25.0
computer nameMPCLINUX
JD of orbit computation2456670.728884
perihelion JD uncertainty (days)8.3899E-05
argument of perihelion uncertainty (°)6.4990E-05
ascending node uncertainty (°)6.2647E-05
inclination uncertainty (°)4.8610E-06
eccentricity uncertainty 4.2300E-08
perihelion distance uncertainty (AU)1.4535E-07
Minimum Orbit Intersection Distances (in AU)
for orbit epoch: 2460000.5, reference: E2023-HJ2
Mercury2.27953
Venus1.9628
Earth1.67419
Mars1.31534
Jupiter1.64314
Saturn5.48848
Uranus14.7369
Neptune26.6462

Observations

304 total observations over interval: 2002 10 18.30672 – 2023 04 25.363828
These data are available for download (format description).

Date (UT) J2000 RA J2000 Dec Magn Location Ref
2002 10 18.30672 01 34 44.81 +12 05 47.8 20.0   644 – Palomar Mountain/NEAT MPS 270408
2002 10 18.37533 01 34 41.60 +12 05 23.0 20.3   644 – Palomar Mountain/NEAT MPS 270408
2002 10 18.44223 01 34 38.51 +12 04 59.6 19.5   644 – Palomar Mountain/NEAT MPS 270408
2002 10 25.17040 01 29 40.44 +11 25 28.3 19.7   644 – Palomar Mountain/NEAT MPS 270408
2002 10 25.24327 01 29 37.18 +11 25 03.0 19.5   644 – Palomar Mountain/NEAT MPS 270408
2002 10 25.30979 01 29 34.22 +11 24 39.7 20.7   644 – Palomar Mountain/NEAT MPS 270408
2006 05 06.24214 13 44 54.96 -12 00 18.3 20.9 V G96 – Mt. Lemmon Survey MPS 270408
2006 05 06.24778 13 44 54.70 -12 00 16.6 20.8 V G96 – Mt. Lemmon Survey MPS 270408
2006 05 06.25345 13 44 54.45 -12 00 15.5 20.2 V G96 – Mt. Lemmon Survey MPS 270408
2006 05 06.25919 13 44 54.27 -12 00 13.4 20.7 V G96 – Mt. Lemmon Survey MPS 270408
2007 06 19.40091 20 31 20.14 -12 54 26.5 20.1 V 691 – Steward Observatory, Kitt Peak-Spacewatch MPS 270408
2007 06 19.41861 20 31 19.80 -12 54 25.4 20.2 V 691 – Steward Observatory, Kitt Peak-Spacewatch MPS 270408
2007 06 19.43631 20 31 19.48 -12 54 24.2 20.1 V 691 – Steward Observatory, Kitt Peak-Spacewatch MPS 270408
2007 06 23.36033 20 30 02.87 -12 50 42.7 20.3 V 691 – Steward Observatory, Kitt Peak-Spacewatch MPS 270408
2007 06 23.37798 20 30 02.47 -12 50 41.8 20.3 V 691 – Steward Observatory, Kitt Peak-Spacewatch MPS 270408
2007 06 23.39908 20 30 01.98 -12 50 40.7 20.5 V 691 – Steward Observatory, Kitt Peak-Spacewatch MPS 270408
2007 06 27.35687 20 28 23.84 -12 48 36.6 19.8 V 691 – Steward Observatory, Kitt Peak-Spacewatch MPS 270408
2007 06 27.37457 20 28 23.35 -12 48 36.1 20.1 V 691 – Steward Observatory, Kitt Peak-Spacewatch MPS 270408
2007 06 27.38973 20 28 22.90 -12 48 35.9 20.0 V 691 – Steward Observatory, Kitt Peak-Spacewatch MPS 270408
2008 10 02.46444 03 39 18.32 +19 38 32.6 20.1 V G96 – Mt. Lemmon Survey MPS 267680
2008 10 02.47100 03 39 18.21 +19 38 31.9 20.6 V G96 – Mt. Lemmon Survey MPS 267680
2008 10 02.47770 03 39 18.10 +19 38 31.2 20.9 V G96 – Mt. Lemmon Survey MPS 267680
2008 10 02.48421 03 39 18.00 +19 38 30.1 20.6 V G96 – Mt. Lemmon Survey MPS 267680
2008 10 23.30633 03 29 34.02 +18 38 54.7 20.5 V 691 – Steward Observatory, Kitt Peak-Spacewatch MPS 263504
2008 10 23.30879 03 29 33.89 +18 38 53.9 20.5 V 691 – Steward Observatory, Kitt Peak-Spacewatch MPS 263504
2008 10 23.32397 03 29 33.30 +18 38 50.7 20.5 V 691 – Steward Observatory, Kitt Peak-Spacewatch MPS 263504
2008 10 23.32643 03 29 33.22 +18 38 50.2 20.3 V 691 – Steward Observatory, Kitt Peak-Spacewatch MPS 263504
2008 10 23.34161 03 29 32.55 +18 38 46.6 20.3 V 691 – Steward Observatory, Kitt Peak-Spacewatch MPS 263504
2008 10 23.34407 03 29 32.47 +18 38 46.6 20.4 V 691 – Steward Observatory, Kitt Peak-Spacewatch MPS 263504
2008 10 27.27997 03 26 47.28 +18 23 42.1 20.4 V 691 – Steward Observatory, Kitt Peak-Spacewatch MPS 263504
2008 10 27.29764 03 26 46.50 +18 23 38.0 20.1 V 691 – Steward Observatory, Kitt Peak-Spacewatch MPS 263504
2008 10 27.31532 03 26 45.71 +18 23 33.8 20.3 V 691 – Steward Observatory, Kitt Peak-Spacewatch MPS 263504
2008 11 08.25237 03 17 25.16 +17 33 05.8 20.1 V 691 – Steward Observatory, Kitt Peak-Spacewatch MPS 264707
2008 11 08.27292 03 17 24.17 +17 32 59.9 20.0 V 691 – Steward Observatory, Kitt Peak-Spacewatch MPS 264707
2008 11 08.29054 03 17 23.27 +17 32 55.7 20.3 V 691 – Steward Observatory, Kitt Peak-Spacewatch MPS 264707
2008 11 20.19526 03 07 46.88 +16 40 18.4 20.3 V G96 – Mt. Lemmon Survey MPS 265356
2008 11 20.20083 03 07 46.66 +16 40 17.2 20.1 V G96 – Mt. Lemmon Survey MPS 265356
2008 11 20.20640 03 07 46.38 +16 40 15.9 20.1 V G96 – Mt. Lemmon Survey MPS 265356
2008 11 20.21205 03 07 46.09 +16 40 14.5 20.2 V G96 – Mt. Lemmon Survey MPS 265356
2008 11 30.22001 03 00 32.61 +15 59 20.1 20.0 V G96 – Mt. Lemmon Survey MPS 267680
2008 11 30.22558 03 00 32.40 +15 59 18.7 19.8 V G96 – Mt. Lemmon Survey MPS 267680
2008 11 30.23103 03 00 32.18 +15 59 17.3 19.9 V G96 – Mt. Lemmon Survey MPS 267680
2008 11 30.23653 03 00 31.96 +15 59 16.4 19.7 V G96 – Mt. Lemmon Survey MPS 267680
2008 12 02.25189 02 59 14.89 +15 51 48.0 20.5 V G96 – Mt. Lemmon Survey MPS 267680
2008 12 02.25880 02 59 14.60 +15 51 46.9 20.2 V G96 – Mt. Lemmon Survey MPS 267680
2008 12 02.26546 02 59 14.38 +15 51 45.1 20.2 V G96 – Mt. Lemmon Survey MPS 267680
2008 12 02.27214 02 59 14.10 +15 51 43.5 20.2 V G96 – Mt. Lemmon Survey MPS 267680
2009 01 18.18785 02 53 13.30 +14 55 08.5 21.5 V G96 – Mt. Lemmon Survey MPS 272765
2009 01 18.19420 02 53 13.45 +14 55 09.0 21.3 V G96 – Mt. Lemmon Survey MPS 272765
2009 01 18.20042 02 53 13.56 +14 55 09.6 21.1 V G96 – Mt. Lemmon Survey MPS 272765
2009 01 18.20682 02 53 13.74 +14 55 10.0 21.6 V G96 – Mt. Lemmon Survey MPS 272765
2010 01 12.32398 07 54 14.36 +15 13 36.1 20.5 V G96 – Mt. Lemmon Survey MPS 310300
2010 01 12.33123 07 54 13.93 +15 13 36.9 22.1 V G96 – Mt. Lemmon Survey MPS 310300
2010 01 12.33853 07 54 13.68 +15 13 38.2 20.6 V G96 – Mt. Lemmon Survey MPS 310300
2010 01 12.34582 07 54 13.28 +15 13 38.6 21.4 V G96 – Mt. Lemmon Survey MPS 310300
2010 01 12.35304 07 54 12.96 +15 13 40.3 21.7 V G96 – Mt. Lemmon Survey MPS 310300
2011 03 02.22141 11 17 34.46 -00 38 05.9 21.0 V 691 – Steward Observatory, Kitt Peak-Spacewatch MPS 372077
2011 03 02.23910 11 17 33.69 -00 38 01.2 21.0 V 691 – Steward Observatory, Kitt Peak-Spacewatch MPS 372077
2011 03 02.26029 11 17 32.82 -00 37 55.8 20.9 V 691 – Steward Observatory, Kitt Peak-Spacewatch MPS 372077
2011 03 30.36503 10 58 48.435 +01 38 49.16 21.6 w F51 – Pan-STARRS 1, Haleakala MPS 377237
2011 03 30.37831 10 58 47.958 +01 38 53.08 21.6 w F51 – Pan-STARRS 1, Haleakala MPS 377237
2011 03 30.39277 10 58 47.456 +01 38 57.00 21.7 w F51 – Pan-STARRS 1, Haleakala MPS 377237
2011 03 30.40603 10 58 46.979 +01 39 00.76 21.5 w F51 – Pan-STARRS 1, Haleakala MPS 377237
2012 04 28.38948 15 24 53.02 -18 08 49.3 20.5 V G96 – Mt. Lemmon Survey MPS 423633
2012 04 28.39699 15 24 52.70 -18 08 47.7 20.4 V G96 – Mt. Lemmon Survey MPS 423633
2012 04 28.40447 15 24 52.34 -18 08 45.8 20.6 V G96 – Mt. Lemmon Survey MPS 423633
2012 04 28.41190 15 24 51.94 -18 08 44.1 19.1 V G96 – Mt. Lemmon Survey MPS 423633
2012 05 12.31464 15 14 22.52 -17 12 28.1 20.1 V G96 – Mt. Lemmon Survey MPS 424852
2012 05 12.32156 15 14 22.16 -17 12 26.3 20.1 V G96 – Mt. Lemmon Survey MPS 424852
2012 05 12.32847 15 14 21.87 -17 12 24.3 19.9 V G96 – Mt. Lemmon Survey MPS 424852
2012 05 12.33541 15 14 21.51 -17 12 22.9 20.1 V G96 – Mt. Lemmon Survey MPS 424852
2012 05 14.41054 15 12 44.246 -17 03 34.59 19.9 r F51 – Pan-STARRS 1, Haleakala MPS 424852
2012 05 14.42084 15 12 43.741 -17 03 31.99 20.0 r F51 – Pan-STARRS 1, Haleakala MPS 424852
2012 05 14.43192 15 12 43.201 -17 03 29.22 20.4 g F51 – Pan-STARRS 1, Haleakala MPS 424852
2012 05 14.44286 15 12 42.669 -17 03 26.39 20.2 g F51 – Pan-STARRS 1, Haleakala MPS 424852
2012 06 07.28105 14 56 14.314 -15 30 16.27 20.7 r F51 – Pan-STARRS 1, Haleakala MPS 427241
2012 06 07.28836 14 56 14.071 -15 30 14.86 20.6 r F51 – Pan-STARRS 1, Haleakala MPS 427241
2012 06 10.23059 14 54 43.56 -15 21 05.6 20.8 V G96 – Mt. Lemmon Survey MPS 427241
2012 06 10.23917 14 54 43.34 -15 21 03.4 20.9 V G96 – Mt. Lemmon Survey MPS 427241
2012 06 10.24786 14 54 43.09 -15 21 02.1 20.7 V G96 – Mt. Lemmon Survey MPS 427241
2012 06 10.25659 14 54 42.76 -15 21 00.5 20.8 V G96 – Mt. Lemmon Survey MPS 427241
2012 06 19.21469 14 51 08.56 -14 57 59.9 21.2 V G96 – Mt. Lemmon Survey MPS 427769
2012 06 19.22162 14 51 08.38 -14 57 58.9 20.8 V G96 – Mt. Lemmon Survey MPS 427769
2012 06 19.22867 14 51 08.24 -14 57 58.1 20.7 V G96 – Mt. Lemmon Survey MPS 427769
2012 06 19.23563 14 51 08.10 -14 57 57.0 21.1 V G96 – Mt. Lemmon Survey MPS 427769
2013 05 16.56520 22 05 37.575 -07 01 49.51 21.1 w F51 – Pan-STARRS 1, Haleakala MPS 468545
2013 05 16.57046 22 05 37.893 -07 01 47.29 21.1 w F51 – Pan-STARRS 1, Haleakala MPS 468545
2013 05 16.57572 22 05 38.207 -07 01 44.95 21.1 w F51 – Pan-STARRS 1, Haleakala MPS 468545
2013 05 16.58097 22 05 38.519 -07 01 42.56 20.8 w F51 – Pan-STARRS 1, Haleakala MPS 468545
2013 07 28.26807 22 32 49.31 -02 23 28.7   691 – Steward Observatory, Kitt Peak-Spacewatch MPS 472960
